Regional Weather Roundup
Issued by NWS

Home | Current Version | Previous Version | Graphics & Text | Print | Product List | Glossary On
Versions: 1 2 3 4 5 6 7 8 9 10 11 12 13 14 15 16 17 18 19 20 21 22 23 24 25 26 27 28 29 30 31 32 33 34 35 36 37 38 39 40 41 42 43 44 45 46 47 48 49 50
000
ASUS43 KIND 170200
RWRIN

WEATHER ROUNDUP FOR INDIANA
NATIONAL WEATHER SERVICE INDIANAPOLIS IN
1000 PM EDT MON OCT 16 2017

NOTE: "FAIR" INDICATES FEW OR NO CLOUDS BELOW 12,000 FEET WITH NO
SIGNIFICANT WEATHER AND/OR OBSTRUCTIONS TO VISIBILITY.

* - STATION DOES NOT REPORT WEATHER SUCH AS PRECIPITATION OR FOG.

+ - STATION NOT QUALITY CONTROLLED BY THE NATIONAL WEATHER SERVICE.
    USE DATA WITH CAUTION...ESPECIALLY DEWPOINT AND RELATIVE
    HUMIDITY OBSERVATIONS.

INZ001>003-010>013-019-020-170300-
NORTHWEST INDIANA

CITY           SKY/WX    TMP DP  RH WIND       PRES   REMARKS
GARY /AIRPORT/ CLEAR     45  43  93 VRB3      30.24S
MONTICELLO +   CLEAR     49  37  63 S5        30.26R
RENSSELAER +   CLEAR     48  32  53 S3        30.26R

$$

LMZ046-743>745-170300-
SOUTHERN LAKE MICHIGAN

STATION/POSITION TIME  TEMP    WIND        PRES    WAVE
                       AIR SEA DIR/SP/G            HT
                 (UTC) (F)     (DEG/KT/KT) (MB)    (FT)
BURNS HARBOR     0140   55     200/  7/  9 1024.0S
MICHIGAN CITY    0130   56     180/ 10/ 11   N/A
5NW MICH CITY    0140   56 58  200/  8/ 10   N/A     2

$$

INZ004-005-014>016-021>024-170300-
NORTH CENTRAL INDIANA

CITY           SKY/WX    TMP DP  RH WIND       PRES   REMARKS
GOSHEN         CLEAR     44  38  79 SE3       30.25S
PERU/GRISSOM   CLEAR     46  38  73 S6        30.26S
SOUTH BEND     CLEAR     45  41  86 CALM      30.25S

$$

INZ006>009-017-018-025>027-170300-
NORTHEAST INDIANA

CITY           SKY/WX    TMP DP  RH WIND       PRES   REMARKS
FORT WAYNE     CLEAR     45  38  76 S3        30.27F
KENDALLVILLE + CLEAR     44  40  83 CALM      30.26S

$$

INZ028-029-035-036-043>045-051>053-170300-
WEST CENTRAL INDIANA

CITY           SKY/WX    TMP DP  RH WIND       PRES   REMARKS
LAFAYETTE      CLEAR     46  40  79 W3        30.27S
TERRE HAUTE    CLEAR     45  40  82 CALM      30.30S

$$

INZ030>032-037>040-046>048-054>057-064-065-170300-
CENTRAL INDIANA

CITY           SKY/WX    TMP DP  RH WIND       PRES   REMARKS
COLUMBUS       CLEAR     46  41  81 CALM      30.32R
INDIANAPOLIS   CLEAR     49  37  63 SW6       30.30S
-EAGLE CREEK   CLEAR     49  40  71 CALM      30.29S
KOKOMO +       CLEAR     46  39  76 S7        30.28S
MT COMFORT *+  CLEAR     43  43 100 S3        30.30S
SHELBYVILLE    CLEAR     45  40  82 CALM      30.30S

$$

INZ033-034-041-042-049-050-058-059-170300-
EAST CENTRAL INDIANA

CITY           SKY/WX    TMP DP  RH WIND       PRES   REMARKS
MUNCIE         CLEAR     48  40  73 S3        30.29S
RICHMOND +     CLEAR     41  37  87 CALM      30.31S

$$

INZ060-061-067>069-081>083-085>088-170300-
SOUTHWEST INDIANA

CITY           SKY/WX    TMP DP  RH WIND       PRES   REMARKS
EVANSVILLE     CLEAR     48  42  80 CALM      30.33R
HUNTINGBURG +  CLEAR     45  41  86 CALM      30.33R

$$

INZ062-063-066-070>080-084-089>092-170300-
SOUTH CENTRAL AND SOUTHEAST INDIANA

CITY           SKY/WX    TMP DP  RH WIND       PRES   REMARKS
BLOOMINGTON    CLEAR     43  38  82 CALM      30.31S
MADISON *+     CLEAR     45  39  81 CALM      30.34R
SEYMOUR +      CLEAR     45  39  81 CALM      30.32R

$$





USA.gov is the U.S. government's official web portal to all federal, state and local government web resources and services.